Date String (YYYY-MM-DD hh:mm:ss) UTC,Instrument flags,absolute air pressure of the measurement (hPa),sample flow rate (lpm),inlet stack bypass flow (lpm),air temperature of the measurement (°C),ambient temperature measured by the external sensor (°C),aerosol sample conditioner tube jacket temperature (°C),OPC LED temperature (°C),internal box temperature (°C),relative humidity of the measurement (%),span deviation,mass concentration of particles derived from Lorenz-Mie calculation of OPC scattering (μg/m³),mass concentration of particles derived from Lorenz-Mie calculation of OPC scattering (μg/m³),mass concentration of particles derived from Lorenz-Mie calculation of OPC scattering (μg/m³)
DateTimeUTC,F1_M11,P_M11,Q1_M11,Q2_M11,T1_M11,T2_M11,T3_M11,T4_M11,T5_M11,U1_M11,ZSPAN_M11,X2_M11,X0_M11,X1_M11
2023-07-22 18:00:00,SystemResetWarning,0835.8,5.00,000.00,028.8,027.4,000.0,037.1,030.5,26.9,0000.0,0004.27,0007.34,0003.94
2023-07-22 18:01:00,SystemResetWarning,0835.8,4.98,000.00,028.8,026.5,000.0,037.0,030.4,26.1,0000.0,0004.28,0007.36,0003.94
2023-07-22 18:02:00,SystemResetWarning,0835.8,5.00,000.00,028.7,025.1,000.0,036.9,030.2,26.1,0000.0,0004.28,0007.10,0003.95
2023-07-22 18:03:00,SystemResetWarning,0835.7,5.01,000.00,028.7,024.9,000.0,036.8,030.1,26.0,0000.0,0004.29,0007.09,0003.96
2023-07-22 18:04:00,SystemResetWarning,0835.7,5.01,000.00,028.6,025.2,000.0,036.9,029.9,25.1,0000.0,0004.30,0007.12,0003.97
2023-07-22 18:05:00,SystemResetWarning,0835.7,5.00,000.00,028.6,025.6,000.0,036.9,030.0,28.7,0000.0,0004.32,0007.26,0003.96
2023-07-22 18:06:00,SystemResetWarning,0835.7,5.00,000.00,028.6,026.1,000.0,036.9,030.1,27.2,0000.0,0004.31,0007.26,0003.95
2023-07-22 18:07:00,SystemResetWarning,0835.7,5.00,000.00,028.6,026.5,000.0,037.0,030.2,27.2,0000.0,0004.31,0007.20,0003.96
2023-07-22 18:08:00,SystemResetWarning,0835.7,5.00,000.00,028.6,026.8,000.0,037.0,030.3,23.6,0000.0,0004.32,0007.16,0003.98
2023-07-22 18:09:00,SystemResetWarning,0835.7,5.00,000.00,028.7,027.1,000.0,037.0,030.4,23.3,0000.0,0004.34,0007.22,0004.00
2023-07-22 18:10:00,SystemResetWarning,0835.7,5.00,000.00,028.7,027.4,000.0,037.0,030.4,23.6,0000.0,0004.34,0007.14,0004.00
2023-07-22 18:11:00,SystemResetWarning,0835.7,4.98,000.00,028.7,026.6,000.0,037.0,030.3,22.5,0000.0,0004.33,0006.49,0004.00
2023-07-22 18:12:00,SystemResetWarning,0835.6,5.00,000.00,028.7,025.1,000.0,036.9,030.0,22.2,0000.0,0004.32,0006.43,0004.00
2023-07-22 18:13:00,SystemResetWarning,0835.6,5.00,000.00,028.6,024.8,000.0,036.8,029.9,23.2,0000.0,0004.31,0007.06,0003.98
2023-07-22 18:14:00,SystemResetWarning,0835.6,5.01,000.00,028.5,025.1,000.0,036.8,029.9,24.4,0000.0,0004.29,0007.52,0003.96
2023-07-22 18:15:00,SystemResetWarning,0835.7,5.01,000.00,028.5,025.5,000.0,036.8,029.9,25.2,0000.0,0004.27,0007.49,0003.95
2023-07-22 18:16:00,SystemResetWarning,0835.6,5.00,000.00,028.5,026.0,000.0,036.9,030.0,27.6,0000.0,0004.25,0007.40,0003.94
2023-07-22 18:17:00,SystemResetWarning,0835.7,5.00,000.00,028.5,026.4,000.0,036.9,030.1,27.5,0000.0,0004.24,0007.33,0003.94
2023-07-22 18:18:00,SystemResetWarning,0835.6,4.99,000.00,028.6,026.8,000.0,036.9,030.2,25.8,0000.0,0004.25,0007.36,0003.94
2023-07-22 18:19:00,SystemResetWarning,0835.6,5.00,000.00,028.6,027.1,000.0,037.0,030.3,25.4,0000.0,0004.22,0007.32,0003.93
2023-07-22 18:20:00,SystemResetWarning,0835.6,5.01,000.00,028.7,027.3,000.0,037.0,030.4,26.5,0000.0,0004.22,0007.29,0003.93
2023-07-22 18:21:00,SystemResetWarning,0835.6,4.99,000.00,028.7,027.4,000.0,037.0,030.4,24.4,0000.0,0004.23,0007.39,0003.94
2023-07-22 18:22:00,SystemResetWarning,0835.6,4.98,000.00,028.7,026.2,000.0,036.9,030.3,26.1,0000.0,0004.24,0007.47,0003.94
2023-07-22 18:23:00,SystemResetWarning,0835.6,5.02,000.00,028.6,025.0,000.0,036.8,030.1,24.2,0000.0,0004.22,0007.44,0003.92
2023-07-22 18:24:00,SystemResetWarning,0835.6,5.00,000.00,028.6,025.0,000.0,036.8,030.0,23.5,0000.0,0004.22,0007.04,0003.92
2023-07-22 18:25:00,SystemResetWarning,0835.6,5.00,000.00,028.5,025.3,000.0,036.8,029.9,23.7,0000.0,0004.19,0006.24,0003.91
2023-07-22 18:26:00,SystemResetWarning,0835.6,5.00,000.00,028.5,025.7,000.0,036.8,030.0,24.4,0000.0,0004.16,0006.79,0003.89
2023-07-22 18:27:00,SystemResetWarning,0835.6,5.00,000.00,028.5,026.1,000.0,036.9,030.1,25.1,0000.0,0004.12,0006.76,0003.88
2023-07-22 18:28:00,SystemResetWarning,0835.6,5.00,000.00,028.5,026.5,000.0,036.9,030.2,25.2,0000.0,0004.11,0006.89,0003.86
2023-07-22 18:29:00,SystemResetWarning,0835.6,5.00,000.00,028.6,026.9,000.0,036.9,030.2,25.7,0000.0,0004.09,0006.87,0003.86
2023-07-22 18:30:00,SystemResetWarning,0835.6,4.99,000.00,028.6,027.2,000.0,037.0,030.3,22.9,0000.0,0004.11,0006.92,0003.87
2023-07-22 18:31:00,SystemResetWarning,0835.6,4.99,000.00,028.7,027.3,000.0,037.0,030.4,22.4,0000.0,0004.14,0007.50,0003.88
2023-07-22 18:32:00,SystemResetWarning,0835.6,4.99,000.00,028.7,026.3,000.0,036.9,030.3,23.9,0000.0,0004.15,0007.49,0003.88
2023-07-22 18:33:00,SystemResetWarning,0835.7,5.02,000.00,028.6,024.9,000.0,036.8,030.1,26.5,0000.0,0004.15,0007.43,0003.89
2023-07-22 18:34:00,SystemResetWarning,0835.6,5.01,000.00,028.6,024.8,000.0,036.7,030.0,24.5,0000.0,0004.18,0007.48,0003.91
2023-07-22 18:35:00,SystemResetWarning,0835.6,5.00,000.00,028.5,025.1,000.0,036.8,029.9,23.4,0000.0,0004.18,0007.46,0003.93
2023-07-22 18:36:00,SystemResetWarning,0835.6,5.00,000.00,028.5,025.6,000.0,036.8,029.9,24.0,0000.0,0004.21,0007.44,0003.94
2023-07-22 18:37:00,SystemResetWarning,0835.6,5.00,000.00,028.5,026.0,000.0,036.9,030.0,25.0,0000.0,0004.24,0007.00,0003.97
2023-07-22 18:38:00,SystemResetWarning,0835.6,5.00,000.00,028.5,026.4,000.0,036.9,030.1,24.4,0000.0,0004.26,0006.99,0003.98
2023-07-22 18:39:00,SystemResetWarning,0835.6,5.00,000.00,028.6,026.8,000.0,036.9,030.2,24.8,0000.0,0004.28,0006.94,0003.99
2023-07-22 18:40:00,SystemResetWarning,0835.6,5.01,000.00,028.6,027.1,000.0,036.9,030.3,24.7,0000.0,0004.27,0006.91,0004.00
2023-07-22 18:41:00,SystemResetWarning,0835.7,5.00,000.00,028.7,027.4,000.0,036.9,030.4,24.6,0000.0,0004.27,0007.03,0004.00
2023-07-22 18:42:00,SystemResetWarning,0835.6,4.98,000.00,028.7,027.2,000.0,036.9,030.4,25.1,0000.0,0004.25,0006.52,0004.00
2023-07-22 18:43:00,SystemResetWarning,0835.6,5.00,000.00,028.7,025.7,000.0,036.8,030.2,25.3,0000.0,0004.25,0006.50,0003.99
2023-07-22 18:44:00,SystemResetWarning,0835.6,5.01,000.00,028.6,024.8,000.0,036.8,030.0,25.0,0000.0,0004.27,0006.70,0003.99
2023-07-22 18:45:00,SystemResetWarning,0835.6,5.01,000.00,028.5,024.9,000.0,036.7,029.9,26.3,0000.0,0004.28,0006.78,0003.98
2023-07-22 18:46:00,SystemResetWarning,0835.6,5.00,000.00,028.5,025.3,000.0,036.8,029.9,25.0,0000.0,0004.28,0006.78,0003.97
2023-07-22 18:47:00,SystemResetWarning,0835.6,5.00,000.00,028.5,025.7,000.0,036.8,030.0,24.9,0000.0,0004.27,0006.76,0003.98
2023-07-22 18:48:00,SystemResetWarning,0835.6,5.00,000.00,028.5,026.2,000.0,036.8,030.1,26.6,0000.0,0004.27,0007.07,0003.98
2023-07-22 18:49:00,SystemResetWarning,0835.6,4.99,000.00,028.5,026.6,000.0,036.9,030.2,26.7,0000.0,0004.30,0007.35,0003.98
2023-07-22 18:50:00,SystemResetWarning,0835.6,4.99,000.00,028.6,026.9,000.0,036.9,030.2,28.1,0000.0,0004.31,0007.37,0003.99
2023-07-22 18:51:00,SystemResetWarning,0835.6,5.00,000.00,028.6,027.2,000.0,036.9,030.3,28.4,0000.0,0004.36,0007.51,0004.00
2023-07-22 18:52:00,SystemResetWarning,0835.5,5.00,000.00,028.7,027.2,000.0,036.9,030.4,26.2,0000.0,0004.40,0007.53,0004.01
2023-07-22 18:53:00,SystemResetWarning,0835.7,4.99,000.00,028.7,025.9,000.0,036.8,030.2,25.4,0000.0,0004.41,0007.55,0004.03
2023-07-22 18:54:00,SystemResetWarning,0835.5,5.00,000.00,028.6,024.8,000.0,036.7,030.1,26.5,0000.0,0004.42,0007.42,0004.05
2023-07-22 18:55:00,SystemResetWarning,0835.5,5.01,000.00,028.5,024.8,000.0,036.7,029.9,25.3,0000.0,0004.39,0007.28,0004.06
2023-07-22 18:56:00,SystemResetWarning,0835.5,5.01,000.00,028.4,025.2,000.0,036.8,029.8,24.8,0000.0,0004.37,0007.12,0004.07
2023-07-22 18:57:00,SystemResetWarning,0835.5,5.00,000.00,028.4,025.6,000.0,036.8,029.9,26.2,0000.0,0004.40,0007.24,0004.08
2023-07-22 18:58:00,SystemResetWarning,0835.5,5.00,000.00,028.5,026.1,000.0,036.8,030.0,26.0,0000.0,0004.47,0007.40,0004.11
2023-07-22 18:59:00,SystemResetWarning,0835.5,5.00,000.00,028.5,026.5,000.0,036.8,030.1,26.3,0000.0,0004.50,0007.57,0004.13
